{"data":{"norad_id":68704,"epoch":"2026-09-20T03:55:37.975872Z","epoch_age_seconds":72906,"freshness":"FRESH","line1":"1 68704U 26081F   26263.16363398  .00016867  00000+0  50938-3 0  9995","line2":"2 68704  53.1569 207.5226 0003476  45.6497 314.4790 15.34388437 24566","mean_motion":15.34388437,"eccentricity":0.0003476,"inclination_deg":53.1569,"raan_deg":207.5226,"arg_perigee_deg":45.6497,"mean_anomaly_deg":314.479,"bstar":0.00050938,"rev_number":2456,"period_min":93.848465308788,"perigee_km":460.35972008195,"apogee_km":465.1154961095,"semimajor_km":6840.8746080957,"source":"CELESTRAK","updated_at":"2026-09-20T09:00:43.957570Z"}}